EDT,Max TemperatureF,Mean TemperatureF,Min TemperatureF,Max Dew PointF,MeanDew PointF,Min DewpointF,Max Humidity, Mean Humidity, Min Humidity, Max Sea Level PressureIn, Mean Sea Level PressureIn, Min Sea Level PressureIn, Max VisibilityMiles, Mean VisibilityMiles, Min VisibilityMiles, Max Wind SpeedMPH, Mean Wind SpeedMPH, Max Gust SpeedMPH,PrecipitationIn, CloudCover, Events, WindDirDegrees
2013-10-1,73,63,53,61,59,54,100,87,61,30.06,30.01,29.98,10,6,0,13,7,17,0.00,5,Fog,202
2013-10-2,78,66,55,66,62,55,100,89,61,30.11,30.06,30.03,10,4,0,9,3,,0.00,5,Fog,191
2013-10-3,78,68,59,68,63,59,100,85,57,30.05,30.00,29.93,10,7,0,16,6,22,0.10,5,Fog-Rain,189
2013-10-4,82,72,62,66,63,61,94,75,48,30.04,30.01,29.97,10,10,7,16,8,20,0.00,3,Rain,209
2013-10-5,78,71,64,70,65,63,100,90,65,30.02,29.96,29.87,10,8,1,20,6,20,1.00,4,Rain,180
2013-10-6,64,53,42,63,51,37,100,82,52,29.87,29.80,29.72,10,9,2,18,8,25,0.47,7,Rain,238
2013-10-7,64,53,42,46,41,37,93,75,37,30.14,29.95,29.81,10,10,10,18,8,26,0.00,4,,251
2013-10-8,71,56,41,50,44,41,100,73,38,30.26,30.20,30.14,10,10,7,8,4,,0.00,0,,143
2013-10-9,71,55,39,46,43,37,93,67,33,30.27,30.22,30.16,10,10,10,10,5,,0.00,0,,86
2013-10-10,73,57,41,50,45,41,100,70,36,30.21,30.15,30.10,10,10,2,6,3,,0.00,0,,101
2013-10-11,75,58,41,50,45,41,100,67,29,30.13,30.08,30.02,10,10,2,7,3,,0.00,0,,112
2013-10-12,77,60,44,59,51,43,100,73,41,30.15,30.07,30.03,10,10,7,13,5,16,0.00,2,,172
2013-10-13,69,56,42,57,41,32,100,61,25,30.38,30.30,30.16,10,10,10,10,4,21,0.00,1,,344
2013-10-14,68,52,35,48,40,36,100,72,35,30.39,30.32,30.21,10,10,7,12,3,,0.00,0,,69
2013-10-15,64,53,42,61,53,43,100,90,77,30.19,30.01,29.88,10,9,3,13,8,17,0.02,4,Rain,150
2013-10-16,60,50,41,59,44,39,94,79,67,29.98,29.94,29.89,10,10,7,18,9,26,0.00,6,,252
2013-10-17,51,44,37,46,42,36,100,88,71,29.97,29.91,29.87,10,10,2,16,6,23,0.04,5,Rain,232
2013-10-18,60,48,37,45,39,34,93,79,51,29.99,29.95,29.91,10,10,10,15,8,23,0.00,0,,233
2013-10-19,51,43,35,41,36,32,100,78,47,29.96,29.90,29.85,10,10,7,22,6,30,0.09,6,Rain,248
2013-10-20,62,50,37,41,37,34,87,61,39,29.96,29.90,29.86,10,10,10,23,12,32,0.00,4,,208
2013-10-21,53,44,35,43,37,27,81,70,57,30.01,29.92,29.88,10,10,10,20,13,30,0.00,4,Rain,245
2013-10-22,46,36,26,36,29,23,100,80,46,30.03,29.97,29.89,10,10,5,8,6,,0.07,3,Rain,251
2013-10-23,44,38,33,36,32,27,100,81,53,30.03,29.95,29.87,10,8,4,15,6,29,0.04,7,Rain,297
2013-10-24,41,36,30,32,28,21,93,74,49,30.28,30.13,30.03,10,10,10,13,8,17,0.00,7,,276
2013-10-25,48,36,24,30,26,23,93,71,40,30.43,30.33,30.20,10,10,10,18,8,25,0.00,1,,245
2013-10-26,55,44,33,36,30,27,87,61,38,30.20,30.01,29.88,10,10,10,25,14,33,0.00,5,,246
2013-10-27,53,40,26,32,29,23,100,71,38,30.11,30.07,30.03,10,10,10,10,5,18,0.00,0,,230
2013-10-28,59,44,28,34,30,27,100,67,31,30.32,30.21,30.08,10,10,7,5,1,,0.00,0,,167
2013-10-29,53,44,35,41,37,32,93,77,54,30.37,30.29,30.19,10,8,2,10,6,,0.00,2,Rain,96
2013-10-30,62,53,44,61,51,41,100,93,71,30.19,30.08,29.91,10,5,2,16,6,,0.04,8,Rain,130
2013-10-31,62,56,50,61,58,48,100,94,88,29.90,29.59,29.30,10,7,3,25,16,34,0.79,8,Rain,201